| time (UTC) | temp C | wind direction | speed KPH | gust KPH | rain 1hr cm | rain 24hr cm | rain mn cm | humidity % | barometer mb |
| 20260905165055 | 18 | 44 | 0.0 | 3.2 | 0.00 | 0.00 | 0.00 | 80 | 1011.4 |
| 20260905164549 | 19 | 45 | 1.6 | 4.8 | 0.00 | 0.00 | 0.00 | 80 | 1011.5 |
| 20260905164043 | 18 | 246 | 0.0 | 3.2 | 0.00 | 0.00 | 0.00 | 81 | 1011.3 |
| 20260905163540 | 18 | 65 | 0.0 | 3.2 | 0.00 | 0.00 | 0.00 | 82 | 1011.5 |
| 20260905163036 | 18 | 49 | 0.0 | 0.0 | 0.00 | 0.00 | 0.00 | 82 | 1011.4 |
| 20260905162533 | 18 | 2 | 1.6 | 3.2 | 0.00 | 0.00 | 0.00 | 83 | 1011.3 |
| 20260905162026 | 18 | 352 | 3.2 | 4.8 | 0.00 | 0.00 | 0.00 | 84 | 1011.4 |
| 20260905161521 | 18 | 174 | 4.8 | 4.8 | 0.00 | 0.00 | 0.00 | 84 | 1011.4 |
| 20260905161018 | 18 | 54 | 0.0 | 4.8 | 0.00 | 0.00 | 0.00 | 84 | 1011.5 |
| 20260905160512 | 18 | 6 | 0.0 | 4.8 | 0.00 | 0.00 | 0.00 | 85 | 1011.4 |
| 20260905160011 | 18 | 16 | 1.6 | 4.8 | 0.00 | 0.00 | 0.00 | 86 | 1011.2 |
| 20260905155506 | 18 | 31 | 1.6 | 3.2 | 0.00 | 0.00 | 0.00 | 85 | 1011.3 |
| 20260905155004 | 18 | 30 | 4.8 | 11.3 | 0.00 | 0.00 | 0.00 | 83 | 1011.4 |
| 20260905154500 | 18 | 77 | 1.6 | 3.2 | 0.00 | 0.00 | 0.00 | 84 | 1011.2 |
| 20260905153955 | 18 | 77 | 0.0 | 4.8 | 0.00 | 0.00 | 0.00 | 83 | 1011.1 |
| 20260905153451 | 19 | 42 | 0.0 | 4.8 | 0.00 | 0.00 | 0.00 | 82 | 1011.0 |
| 20260905152950 | 19 | 106 | 1.6 | 4.8 | 0.00 | 0.00 | 0.00 | 80 | 1011.1 |
| 20260905152445 | 18 | 53 | 4.8 | 4.8 | 0.00 | 0.00 | 0.00 | 81 | 1010.9 |
| 20260905151939 | 18 | 330 | 3.2 | 4.8 | 0.00 | 0.00 | 0.00 | 80 | 1011.1 |
| 20260905151435 | 19 | 39 | 1.6 | 4.8 | 0.00 | 0.00 | 0.00 | 80 | 1011.1 |
| 20260905150930 | 18 | 147 | 3.2 | 4.8 | 0.00 | 0.00 | 0.00 | 80 | 1011.0 |
| 20260905150430 | 18 | 353 | 3.2 | 4.8 | 0.00 | 0.00 | 0.00 | 80 | 1011.0 |
| 20260905145926 | 18 | 72 | 0.0 | 3.2 | 0.00 | 0.00 | 0.00 | 81 | 1010.9 |
| 20260905145421 | 18 | 60 | 1.6 | 4.8 | 0.00 | 0.00 | 0.00 | 80 | 1011.0 |
| 20260905144916 | 18 | 263 | 4.8 | 4.8 | 0.00 | 0.00 | 0.00 | 82 | 1010.9 |
| 20260905144411 | 18 | 79 | 1.6 | 4.8 | 0.00 | 0.00 | 0.00 | 81 | 1010.8 |
| 20260905143909 | 18 | 21 | 1.6 | 4.8 | 0.00 | 0.00 | 0.00 | 83 | 1011.1 |
| 20260905143403 | 18 | 44 | 0.0 | 4.8 | 0.00 | 0.00 | 0.00 | 82 | 1010.8 |
| 20260905142857 | 18 | 157 | 1.6 | 3.2 | 0.00 | 0.00 | 0.00 | 82 | 1011.0 |
| 20260905142355 | 18 | 238 | 0.0 | 4.8 | 0.00 | 0.00 | 0.00 | 83 | 1011.1 |
| 20260905141852 | 18 | 58 | 0.0 | 3.2 | 0.00 | 0.00 | 0.00 | 82 | 1010.7 |
| 20260905141347 | 18 | 20 | 4.8 | 8.0 | 0.00 | 0.00 | 0.00 | 83 | 1011.0 |
| 20260905140843 | 17 | 205 | 3.2 | 4.8 | 0.00 | 0.00 | 0.00 | 83 | 1010.9 |
| 20260905140343 | 17 | 61 | 0.0 | 4.8 | 0.00 | 0.00 | 0.00 | 84 | 1010.7 |
| 20260905135841 | 17 | 358 | 3.2 | 3.2 | 0.00 | 0.00 | 0.00 | 85 | 1010.6 |
| 20260905135338 | 17 | 40 | 1.6 | 3.2 | 0.00 | 0.00 | 0.00 | 86 | 1010.7 |
| 20260905134833 | 17 | 332 | 3.2 | 3.2 | 0.00 | 0.00 | 0.00 | 85 | 1010.7 |
| 20260905134326 | 17 | 269 | 4.8 | 8.0 | 0.00 | 0.00 | 0.00 | 86 | 1010.7 |
| 20260905133820 | 17 | 0 | 3.2 | 3.2 | 0.00 | 0.00 | 0.00 | 86 | 1010.6 |
| 20260905133316 | 17 | 225 | 1.6 | 4.8 | 0.00 | 0.00 | 0.00 | 86 | 1010.5 |
| 20260905132814 | 17 | 64 | 1.6 | 4.8 | 0.00 | 0.00 | 0.00 | 85 | 1010.4 |
| 20260905132311 | 17 | 19 | 0.0 | 3.2 | 0.00 | 0.00 | 0.00 | 85 | 1010.5 |
| 20260905131805 | 17 | 130 | 0.0 | 4.8 | 0.00 | 0.00 | 0.00 | 85 | 1010.2 |
| 20260905131301 | 17 | 79 | 0.0 | 8.0 | 0.00 | 0.00 | 0.00 | 85 | 1010.3 |
| 20260905130755 | 17 | 303 | 3.2 | 4.8 | 0.00 | 0.00 | 0.00 | 85 | 1010.2 |
| 20260905130254 | 17 | 333 | 1.6 | 3.2 | 0.00 | 0.00 | 0.00 | 86 | 1010.1 |
| 20260905125750 | 17 | 4 | 0.0 | 4.8 | 0.00 | 0.00 | 0.00 | 86 | 1010.0 |
| 20260905125245 | 17 | 76 | 0.0 | 3.2 | 0.00 | 0.00 | 0.00 | 86 | 1010.0 |
| 20260905124742 | 17 | 67 | 0.0 | 0.0 | 0.00 | 0.00 | 0.00 | 86 | 1010.1 |
| 20260905124237 | 17 | 50 | 0.0 | 3.2 | 0.00 | 0.00 | 0.00 | 86 | 1010.1 |
| 20260905123732 | 17 | 32 | 0.0 | 0.0 | 0.00 | 0.00 | 0.00 | 85 | 1010.0 |
| 20260905123229 | 17 | 17 | 3.2 | 4.8 | 0.00 | 0.00 | 0.00 | 86 | 1010.1 |
| 20260905122728 | 17 | 0 | 0.0 | 0.0 | 0.00 | 0.00 | 0.00 | 86 | 1010.0 |
| 20260905122223 | 17 | 0 | 0.0 | 3.2 | 0.00 | 0.00 | 0.00 | 85 | 1009.7 |
| 20260905121718 | 17 | 0 | 1.6 | 3.2 | 0.00 | 0.00 | 0.00 | 87 | 1009.8 |
| 20260905121214 | 17 | 0 | 0.0 | 0.0 | 0.00 | 0.00 | 0.00 | 87 | 1009.8 |
| 20260905120713 | 16 | 359 | 0.0 | 4.8 | 0.00 | 0.00 | 0.00 | 89 | 1009.7 |
| 20260905120207 | 16 | 10 | 0.0 | 0.0 | 0.00 | 0.00 | 0.00 | 89 | 1009.7 |
| 20260905115702 | 16 | 10 | 0.0 | 3.2 | 0.00 | 0.00 | 0.00 | 89 | 1009.6 |
| 20260905115157 | 16 | 10 | 0.0 | 0.0 | 0.00 | 0.00 | 0.00 | 89 | 1009.6 |
| 20260905114657 | 16 | 10 | 0.0 | 0.0 | 0.00 | 0.00 | 0.00 | 89 | 1009.5 |
| 20260905114154 | 16 | 10 | 0.0 | 0.0 | 0.00 | 0.00 | 0.00 | 90 | 1009.6 |
| 20260905113649 | 16 | 10 | 0.0 | 0.0 | 0.00 | 0.00 | 0.00 | 91 | 1009.5 |
| 20260905113145 | 16 | 9 | 0.0 | 0.0 | 0.00 | 0.00 | 0.00 | 92 | 1009.5 |
| 20260905112644 | 16 | 9 | 0.0 | 0.0 | 0.00 | 0.00 | 0.00 | 91 | 1009.4 |
| 20260905112141 | 16 | 9 | 0.0 | 0.0 | 0.00 | 0.00 | 0.00 | 91 | 1009.6 |
| 20260905111640 | 16 | 9 | 0.0 | 3.2 | 0.00 | 0.00 | 0.00 | 91 | 1009.5 |
| 20260905111140 | 16 | 9 | 0.0 | 3.2 | 0.00 | 0.00 | 0.00 | 92 | 1009.4 |
| 20260905110639 | 16 | 9 | 0.0 | 3.2 | 0.00 | 0.00 | 0.00 | 93 | 1009.4 |
| 20260905110134 | 16 | 9 | 0.0 | 0.0 | 0.00 | 0.00 | 0.00 | 93 | 1009.5 |
| 20260905105629 | 16 | 9 | 0.0 | 3.2 | 0.00 | 0.00 | 0.00 | 93 | 1009.3 |
| 20260905105128 | 16 | 8 | 3.2 | 3.2 | 0.00 | 0.00 | 0.00 | 93 | 1009.3 |
| 20260905104624 | 16 | 9 | 0.0 | 0.0 | 0.00 | 0.00 | 0.00 | 93 | 1009.3 |
| 20260905104119 | 15 | 9 | 0.0 | 3.2 | 0.00 | 0.00 | 0.00 | 93 | 1009.1 |
| 20260905103614 | 15 | 8 | 3.2 | 3.2 | 0.00 | 0.00 | 0.00 | 94 | 1009.0 |
| 20260905103110 | 15 | 10 | 1.6 | 3.2 | 0.00 | 0.00 | 0.00 | 94 | 1008.8 |
| 20260905102605 | 15 | 10 | 3.2 | 3.2 | 0.00 | 0.00 | 0.00 | 95 | 1008.8 |
| 20260905102102 | 15 | 10 | 0.0 | 0.0 | 0.00 | 0.00 | 0.00 | 95 | 1008.8 |
| 20260905101600 | 15 | 10 | 0.0 | 3.2 | 0.00 | 0.00 | 0.00 | 95 | 1009.1 |
| 20260905101058 | 15 | 10 | 0.0 | 0.0 | 0.00 | 0.00 | 0.00 | 95 | 1008.7 |
| 20260905100555 | 15 | 10 | 0.0 | 0.0 | 0.00 | 0.00 | 0.00 | 96 | 1008.8 |
| 20260905100055 | 15 | 10 | 0.0 | 0.0 | 0.00 | 0.00 | 0.00 | 96 | 1008.6 |
| 20260905095544 | 15 | 10 | 0.0 | 0.0 | 0.00 | 0.00 | 0.00 | 96 | 1009.0 |
| 20260905095039 | 15 | 10 | 0.0 | 0.0 | 0.00 | 0.00 | 0.00 | 96 | 1008.7 |
| 20260905094534 | 15 | 10 | 0.0 | 3.2 | 0.00 | 0.00 | 0.00 | 95 | 1008.7 |
| 20260905094033 | 15 | 10 | 0.0 | 3.2 | 0.00 | 0.00 | 0.00 | 95 | 1008.6 |
| 20260905093527 | 15 | 10 | 0.0 | 0.0 | 0.00 | 0.00 | 0.00 | 95 | 1008.6 |
| 20260905093024 | 15 | 10 | 0.0 | 0.0 | 0.00 | 0.00 | 0.00 | 95 | 1008.6 |
| 20260905092524 | 15 | 10 | 0.0 | 0.0 | 0.00 | 0.00 | 0.00 | 94 | 1008.5 |
| 20260905092020 | 15 | 10 | 0.0 | 0.0 | 0.00 | 0.00 | 0.00 | 94 | 1008.7 |
| 20260905091519 | 16 | 10 | 0.0 | 0.0 | 0.00 | 0.00 | 0.00 | 94 | 1008.5 |
| 20260905091014 | 15 | 10 | 0.0 | 3.2 | 0.00 | 0.00 | 0.00 | 93 | 1008.4 |
| 20260905090513 | 15 | 10 | 0.0 | 0.0 | 0.00 | 0.00 | 0.00 | 93 | 1008.6 |
| 20260905090008 | 15 | 10 | 0.0 | 0.0 | 0.00 | 0.00 | 0.00 | 93 | 1008.4 |
| 20260905085507 | 15 | 10 | 0.0 | 3.2 | 0.00 | 0.00 | 0.00 | 92 | 1008.2 |
| 20260905085002 | 15 | 9 | 0.0 | 3.2 | 0.00 | 0.00 | 0.00 | 92 | 1008.3 |
| 20260905084457 | 15 | 8 | 1.6 | 3.2 | 0.00 | 0.00 | 0.00 | 92 | 1008.2 |
| 20260905083952 | 15 | 8 | 1.6 | 3.2 | 0.00 | 0.00 | 0.00 | 92 | 1008.3 |
| 20260905083447 | 15 | 9 | 1.6 | 3.2 | 0.00 | 0.00 | 0.00 | 93 | 1008.3 |
| 20260905082943 | 15 | 9 | 0.0 | 0.0 | 0.00 | 0.00 | 0.00 | 92 | 1008.0 |
| 20260905082439 | 15 | 9 | 0.0 | 0.0 | 0.00 | 0.00 | 0.00 | 92 | 1007.9 |
| 20260905081933 | 15 | 9 | 0.0 | 0.0 | 0.00 | 0.00 | 0.00 | 92 | 1008.0 |
| 20260905081428 | 16 | 9 | 0.0 | 0.0 | 0.00 | 0.00 | 0.00 | 91 | 1008.1 |
| 20260905080927 | 16 | 7 | 0.0 | 3.2 | 0.00 | 0.00 | 0.00 | 90 | 1008.0 |
| 20260905080422 | 16 | 21 | 3.2 | 3.2 | 0.00 | 0.00 | 0.00 | 90 | 1008.2 |
| 20260905075921 | 15 | 21 | 3.2 | 3.2 | 0.00 | 0.00 | 0.00 | 91 | 1007.9 |
| 20260905075415 | 15 | 20 | 3.2 | 3.2 | 0.00 | 0.00 | 0.00 | 91 | 1007.8 |
| 20260905074914 | 15 | 30 | 1.6 | 3.2 | 0.00 | 0.00 | 0.00 | 91 | 1007.7 |
| 20260905074410 | 15 | 35 | 1.6 | 3.2 | 0.00 | 0.00 | 0.00 | 91 | 1008.0 |
| 20260905073906 | 15 | 63 | 0.0 | 3.2 | 0.00 | 0.00 | 0.00 | 91 | 1007.9 |
| 20260905073401 | 16 | 60 | 3.2 | 3.2 | 0.00 | 0.00 | 0.00 | 90 | 1008.0 |
| 20260905072856 | 16 | 342 | 3.2 | 3.2 | 0.00 | 0.00 | 0.00 | 88 | 1008.0 |
| 20260905072350 | 16 | 359 | 3.2 | 4.8 | 0.00 | 0.00 | 0.00 | 88 | 1008.0 |
| 20260905071841 | 16 | 12 | 3.2 | 3.2 | 0.00 | 0.00 | 0.00 | 88 | 1007.9 |
| 20260905071337 | 16 | 9 | 3.2 | 3.2 | 0.00 | 0.00 | 0.00 | 88 | 1007.9 |
| 20260905070831 | 16 | 351 | 3.2 | 3.2 | 0.00 | 0.00 | 0.00 | 88 | 1008.0 |
| 20260905070328 | 16 | 354 | 3.2 | 3.2 | 0.00 | 0.00 | 0.00 | 88 | 1008.1 |
| 20260905065827 | 16 | 353 | 3.2 | 3.2 | 0.00 | 0.00 | 0.00 | 88 | 1008.1 |
| 20260905065325 | 16 | 309 | 4.8 | 4.8 | 0.00 | 0.00 | 0.00 | 89 | 1008.2 |
| 20260905064821 | 16 | 283 | 6.4 | 8.0 | 0.00 | 0.00 | 0.00 | 89 | 1008.4 |
| 20260905064316 | 16 | 345 | 3.2 | 4.8 | 0.00 | 0.00 | 0.00 | 89 | 1008.3 |
| 20260905063815 | 16 | 346 | 3.2 | 4.8 | 0.00 | 0.00 | 0.00 | 88 | 1008.3 |
| 20260905063311 | 16 | 355 | 3.2 | 4.8 | 0.00 | 0.00 | 0.00 | 88 | 1008.2 |
| 20260905062807 | 16 | 358 | 3.2 | 3.2 | 0.00 | 0.00 | 0.00 | 88 | 1008.2 |
| 20260905062305 | 16 | 7 | 3.2 | 3.2 | 0.00 | 0.00 | 0.00 | 88 | 1008.0 |
| 20260905061755 | 16 | 45 | 0.0 | 3.2 | 0.00 | 0.00 | 0.00 | 89 | 1008.1 |
| 20260905061250 | 16 | 318 | 0.0 | 0.0 | 0.00 | 0.00 | 0.00 | 87 | 1008.2 |
| 20260905060744 | 17 | 314 | 3.2 | 3.2 | 0.00 | 0.00 | 0.00 | 86 | 1008.2 |
| 20260905060241 | 17 | 330 | 3.2 | 3.2 | 0.00 | 0.00 | 0.00 | 85 | 1008.1 |
| 20260905055739 | 17 | 345 | 3.2 | 4.8 | 0.00 | 0.00 | 0.00 | 85 | 1008.3 |
| 20260905055235 | 17 | 350 | 3.2 | 4.8 | 0.00 | 0.00 | 0.00 | 85 | 1008.3 |
| 20260905054724 | 17 | 335 | 4.8 | 4.8 | 0.00 | 0.00 | 0.00 | 85 | 1008.3 |
| 20260905054221 | 16 | 340 | 4.8 | 4.8 | 0.00 | 0.00 | 0.00 | 86 | 1008.3 |
| 20260905053719 | 16 | 6 | 3.2 | 4.8 | 0.00 | 0.00 | 0.00 | 86 | 1008.4 |
| 20260905053214 | 17 | 4 | 3.2 | 4.8 | 0.00 | 0.00 | 0.00 | 86 | 1008.5 |
| 20260905052709 | 17 | 3 | 3.2 | 3.2 | 0.00 | 0.00 | 0.00 | 85 | 1008.4 |
| 20260905052204 | 17 | 4 | 3.2 | 3.2 | 0.00 | 0.00 | 0.00 | 85 | 1008.5 |
| 20260905051704 | 17 | 15 | 3.2 | 3.2 | 0.00 | 0.00 | 0.00 | 86 | 1008.3 |
| 20260905051201 | 16 | 7 | 3.2 | 3.2 | 0.00 | 0.00 | 0.00 | 87 | 1008.5 |
| 20260905050657 | 16 | 21 | 1.6 | 3.2 | 0.00 | 0.00 | 0.00 | 89 | 1008.7 |
| 20260905050154 | 16 | 18 | 3.2 | 3.2 | 0.00 | 0.00 | 0.00 | 88 | 1008.5 |
| 20260905045653 | 17 | 16 | 3.2 | 3.2 | 0.00 | 0.00 | 0.00 | 86 | 1008.5 |
| 20260905045148 | 17 | 15 | 3.2 | 3.2 | 0.00 | 0.00 | 0.00 | 85 | 1008.4 |
| 20260905044643 | 17 | 43 | 1.6 | 3.2 | 0.00 | 0.00 | 0.00 | 85 | 1008.4 |
| 20260905044138 | 17 | 44 | 0.0 | 0.0 | 0.00 | 0.00 | 0.00 | 86 | 1008.3 |
| 20260905043636 | 17 | 44 | 0.0 | 3.2 | 0.00 | 0.00 | 0.00 | 86 | 1008.3 |
| 20260905043132 | 17 | 44 | 0.0 | 0.0 | 0.00 | 0.00 | 0.00 | 85 | 1008.3 |
| 20260905042631 | 17 | 42 | 0.0 | 3.2 | 0.00 | 0.00 | 0.00 | 85 | 1008.3 |
| 20260905042126 | 17 | 44 | 1.6 | 3.2 | 0.00 | 0.00 | 0.00 | 85 | 1008.3 |
| 20260905041621 | 17 | 97 | 0.0 | 0.0 | 0.00 | 0.00 | 0.00 | 86 | 1008.6 |
| 20260905041117 | 17 | 100 | 0.0 | 0.0 | 0.00 | 0.00 | 0.00 | 86 | 1008.3 |
| 20260905040616 | 17 | 100 | 0.0 | 0.0 | 0.00 | 0.00 | 0.00 | 85 | 1008.4 |
| 20260905040115 | 17 | 134 | 3.2 | 3.2 | 0.00 | 0.00 | 0.00 | 84 | 1008.5 |
| 20260905035611 | 18 | 142 | 3.2 | 3.2 | 0.00 | 0.00 | 0.00 | 82 | 1008.3 |
| 20260905035107 | 18 | 20 | 3.2 | 3.2 | 0.00 | 0.00 | 0.00 | 82 | 1008.3 |
| 20260905034602 | 18 | 16 | 3.2 | 3.2 | 0.00 | 0.00 | 0.00 | 81 | 1008.3 |
| 20260905034056 | 18 | 4 | 3.2 | 4.8 | 0.00 | 0.00 | 0.00 | 82 | 1008.3 |
| 20260905033550 | 18 | 345 | 1.6 | 4.8 | 0.00 | 0.00 | 0.00 | 82 | 1008.3 |
| 20260905033046 | 18 | 312 | 4.8 | 4.8 | 0.00 | 0.00 | 0.00 | 82 | 1008.4 |
| 20260905032541 | 18 | 318 | 3.2 | 4.8 | 0.00 | 0.00 | 0.00 | 81 | 1008.4 |
| 20260905032036 | 18 | 316 | 4.8 | 4.8 | 0.00 | 0.00 | 0.00 | 81 | 1008.6 |
| 20260905031531 | 18 | 312 | 3.2 | 3.2 | 0.00 | 0.00 | 0.00 | 81 | 1008.6 |
| 20260905031030 | 18 | 314 | 3.2 | 3.2 | 0.00 | 0.00 | 0.00 | 81 | 1008.7 |
| 20260905030521 | 18 | 319 | 3.2 | 4.8 | 0.00 | 0.00 | 0.00 | 80 | 1008.6 |
| 20260905030021 | 18 | 312 | 3.2 | 4.8 | 0.00 | 0.00 | 0.00 | 80 | 1008.6 |
| 20260905025516 | 18 | 335 | 3.2 | 4.8 | 0.00 | 0.00 | 0.00 | 80 | 1008.6 |
| 20260905025012 | 18 | 350 | 4.8 | 4.8 | 0.00 | 0.00 | 0.00 | 79 | 1008.6 |
| 20260905024507 | 18 | 357 | 3.2 | 3.2 | 0.00 | 0.00 | 0.00 | 79 | 1008.6 |
| 20260905024003 | 18 | 334 | 3.2 | 4.8 | 0.00 | 0.00 | 0.00 | 79 | 1008.7 |
| 20260905023457 | 18 | 331 | 3.2 | 3.2 | 0.00 | 0.00 | 0.00 | 79 | 1008.6 |
| 20260905022956 | 18 | 325 | 3.2 | 3.2 | 0.00 | 0.00 | 0.00 | 79 | 1008.6 |
| 20260905022451 | 18 | 310 | 4.8 | 8.0 | 0.00 | 0.00 | 0.00 | 79 | 1008.7 |
| 20260905021947 | 18 | 342 | 3.2 | 4.8 | 0.00 | 0.00 | 0.00 | 81 | 1008.7 |
| 20260905021446 | 18 | 5 | 3.2 | 3.2 | 0.00 | 0.00 | 0.00 | 82 | 1008.7 |
| 20260905020942 | 18 | 39 | 1.6 | 3.2 | 0.00 | 0.00 | 0.00 | 82 | 1009.0 |
| 20260905020441 | 18 | 61 | 1.6 | 3.2 | 0.00 | 0.00 | 0.00 | 81 | 1009.0 |
| 20260905015936 | 18 | 63 | 0.0 | 0.0 | 0.00 | 0.00 | 0.00 | 82 | 1008.8 |
| 20260905015434 | 18 | 64 | 0.0 | 0.0 | 0.00 | 0.00 | 0.00 | 82 | 1008.8 |
| 20260905014933 | 18 | 63 | 1.6 | 3.2 | 0.00 | 0.00 | 0.00 | 83 | 1008.8 |
| 20260905014429 | 18 | 63 | 3.2 | 3.2 | 0.00 | 0.00 | 0.00 | 83 | 1009.0 |
| 20260905013924 | 19 | 346 | 1.6 | 3.2 | 0.00 | 0.00 | 0.00 | 78 | 1008.8 |
| 20260905013421 | 19 | 341 | 1.6 | 3.2 | 0.00 | 0.00 | 0.00 | 79 | 1008.7 |
| 20260905012915 | 19 | 321 | 3.2 | 4.8 | 0.00 | 0.00 | 0.00 | 79 | 1008.8 |
| 20260905012411 | 19 | 316 | 4.8 | 4.8 | 0.00 | 0.00 | 0.00 | 77 | 1009.0 |
| 20260905011908 | 19 | 321 | 3.2 | 4.8 | 0.00 | 0.00 | 0.00 | 77 | 1008.8 |
| 20260905011403 | 19 | 328 | 3.2 | 4.8 | 0.00 | 0.00 | 0.00 | 77 | 1008.8 |
| 20260905010858 | 20 | 340 | 3.2 | 4.8 | 0.00 | 0.00 | 0.00 | 76 | 1009.1 |
| 20260905010353 | 20 | 354 | 1.6 | 3.2 | 0.00 | 0.00 | 0.00 | 76 | 1009.1 |
| 20260905005849 | 20 | 354 | 0.0 | 3.2 | 0.00 | 0.00 | 0.00 | 77 | 1009.1 |
| 20260905005345 | 20 | 354 | 0.0 | 3.2 | 0.00 | 0.00 | 0.00 | 77 | 1009.1 |
| 20260905004839 | 20 | 353 | 1.6 | 3.2 | 0.00 | 0.00 | 0.00 | 75 | 1009.0 |
| 20260905004334 | 20 | 353 | 3.2 | 3.2 | 0.00 | 0.00 | 0.00 | 77 | 1008.7 |
| 20260905003830 | 20 | 351 | 3.2 | 3.2 | 0.00 | 0.00 | 0.00 | 76 | 1008.8 |
| 20260905003325 | 20 | 359 | 0.0 | 3.2 | 0.00 | 0.00 | 0.00 | 75 | 1008.8 |
| 20260905002821 | 20 | 359 | 0.0 | 0.0 | 0.00 | 0.00 | 0.00 | 75 | 1009.0 |
| 20260905002315 | 20 | 359 | 0.0 | 0.0 | 0.00 | 0.00 | 0.00 | 76 | 1009.0 |
| 20260905001810 | 20 | 359 | 0.0 | 0.0 | 0.00 | 0.00 | 0.00 | 77 | 1008.7 |
| 20260905001309 | 20 | 358 | 0.0 | 0.0 | 0.00 | 0.00 | 0.00 | 77 | 1008.8 |
| 20260905000805 | 20 | 352 | 0.0 | 0.0 | 0.00 | 0.00 | 0.00 | 78 | 1009.0 |
| 20260905000300 | 20 | 350 | 0.0 | 3.2 | 0.00 | 0.00 | 0.00 | 79 | 1008.7 |
| 20260904235756 | 20 | 349 | 1.6 | 3.2 | 0.00 | 0.00 | 0.00 | 78 | 1008.6 |
| 20260904235250 | 20 | 354 | 1.6 | 3.2 | 0.00 | 0.00 | 0.00 | 76 | 1008.4 |
| 20260904234745 | 20 | 341 | 1.6 | 3.2 | 0.00 | 0.00 | 0.00 | 76 | 1008.5 |
| 20260904234240 | 20 | 308 | 4.8 | 4.8 | 0.00 | 0.00 | 0.00 | 72 | 1008.4 |
| 20260904233736 | 20 | 29 | 3.2 | 3.2 | 0.00 | 0.00 | 0.00 | 71 | 1008.3 |
| 20260904233232 | 20 | 42 | 1.6 | 3.2 | 0.00 | 0.00 | 0.00 | 72 | 1008.4 |
| 20260904232728 | 21 | 45 | 0.0 | 3.2 | 0.00 | 0.00 | 0.00 | 73 | 1008.4 |
| 20260904232224 | 21 | 27 | 0.0 | 3.2 | 0.00 | 0.00 | 0.00 | 71 | 1008.3 |
| 20260904231719 | 21 | 26 | 3.2 | 3.2 | 0.00 | 0.00 | 0.00 | 71 | 1008.3 |
| 20260904231214 | 21 | 30 | 3.2 | 3.2 | 0.00 | 0.00 | 0.00 | 72 | 1008.4 |
| 20260904230709 | 20 | 53 | 1.6 | 3.2 | 0.00 | 0.00 | 0.00 | 74 | 1008.6 |
| 20260904230203 | 20 | 66 | 3.2 | 3.2 | 0.00 | 0.00 | 0.00 | 76 | 1008.6 |
| 20260904225702 | 21 | 63 | 3.2 | 3.2 | 0.00 | 0.00 | 0.00 | 78 | 1008.5 |
| 20260904225156 | 21 | 19 | 0.0 | 3.2 | 0.00 | 0.00 | 0.00 | 74 | 1008.3 |
| 20260904224650 | 21 | 312 | 1.6 | 4.8 | 0.00 | 0.00 | 0.00 | 72 | 1008.4 |
| 20260904224145 | 21 | 12 | 3.2 | 3.2 | 0.00 | 0.00 | 0.00 | 71 | 1008.2 |
| 20260904223645 | 21 | 359 | 3.2 | 4.8 | 0.00 | 0.00 | 0.00 | 70 | 1008.3 |
| 20260904223140 | 22 | 359 | 3.2 | 4.8 | 0.00 | 0.00 | 0.00 | 68 | 1008.3 |
| 20260904222636 | 22 | 306 | 4.8 | 4.8 | 0.00 | 0.00 | 0.00 | 66 | 1008.1 |
| 20260904222131 | 22 | 13 | 3.2 | 3.2 | 0.00 | 0.00 | 0.00 | 66 | 1008.3 |
| 20260904221631 | 22 | 4 | 1.6 | 4.8 | 0.00 | 0.00 | 0.00 | 67 | 1008.2 |
| 20260904221125 | 22 | 14 | 1.6 | 3.2 | 0.00 | 0.00 | 0.00 | 68 | 1008.3 |
| 20260904220621 | 22 | 310 | 3.2 | 4.8 | 0.00 | 0.00 | 0.00 | 66 | 1008.4 |
| 20260904220116 | 22 | 0 | 3.2 | 3.2 | 0.00 | 0.00 | 0.00 | 65 | 1008.4 |
| 20260904215616 | 22 | 13 | 0.0 | 3.2 | 0.00 | 0.00 | 0.00 | 65 | 1008.5 |
| 20260904215112 | 22 | 15 | 0.0 | 3.2 | 0.00 | 0.00 | 0.00 | 66 | 1008.4 |
| 20260904214607 | 22 | 11 | 1.6 | 3.2 | 0.00 | 0.00 | 0.00 | 65 | 1008.4 |
| 20260904214103 | 22 | 357 | 3.2 | 4.8 | 0.00 | 0.00 | 0.00 | 65 | 1008.3 |
| 20260904213600 | 22 | 345 | 3.2 | 4.8 | 0.00 | 0.00 | 0.00 | 63 | 1008.3 |
| 20260904213057 | 22 | 331 | 3.2 | 4.8 | 0.00 | 0.00 | 0.00 | 63 | 1008.0 |
| 20260904212556 | 22 | 322 | 6.4 | 8.0 | 0.00 | 0.00 | 0.00 | 62 | 1008.4 |
| 20260904212052 | 22 | 333 | 3.2 | 4.8 | 0.00 | 0.00 | 0.00 | 62 | 1008.3 |
| 20260904211551 | 22 | 321 | 3.2 | 8.0 | 0.00 | 0.00 | 0.00 | 62 | 1008.5 |
| 20260904211047 | 23 | 310 | 6.4 | 11.3 | 0.00 | 0.00 | 0.00 | 60 | 1008.2 |
| 20260904210546 | 23 | 325 | 4.8 | 11.3 | 0.00 | 0.00 | 0.00 | 62 | 1008.2 |
| 20260904210042 | 23 | 299 | 4.8 | 8.0 | 0.00 | 0.00 | 0.00 | 63 | 1008.1 |
| 20260904205542 | 23 | 290 | 4.8 | 11.3 | 0.00 | 0.00 | 0.00 | 64 | 1008.3 |
| 20260904205039 | 23 | 288 | 6.4 | 11.3 | 0.00 | 0.00 | 0.00 | 64 | 1008.1 |
| 20260904204535 | 23 | 314 | 4.8 | 4.8 | 0.00 | 0.00 | 0.00 | 65 | 1008.0 |
| 20260904204031 | 23 | 287 | 6.4 | 11.3 | 0.00 | 0.00 | 0.00 | 62 | 1008.2 |
| 20260904203526 | 24 | 349 | 3.2 | 8.0 | 0.00 | 0.00 | 0.00 | 63 | 1008.1 |
| 20260904203023 | 24 | 17 | 1.6 | 3.2 | 0.00 | 0.00 | 0.00 | 63 | 1007.9 |
| 20260904202519 | 24 | 353 | 1.6 | 8.0 | 0.00 | 0.00 | 0.00 | 63 | 1008.1 |
| 20260904202015 | 24 | 299 | 11.3 | 14.5 | 0.00 | 0.00 | 0.00 | 62 | 1008.1 |
| 20260904201509 | 24 | 310 | 9.7 | 11.3 | 0.00 | 0.00 | 0.00 | 61 | 1008.1 |
| 20260904201005 | 24 | 338 | 8.0 | 8.0 | 0.00 | 0.00 | 0.00 | 61 | 1008.0 |
| 20260904200503 | 24 | 292 | 8.0 | 11.3 | 0.00 | 0.00 | 0.00 | 61 | 1007.9 |
| 20260904195958 | 24 | 309 | 4.8 | 11.3 | 0.00 | 0.00 | 0.00 | 60 | 1008.1 |
| 20260904195457 | 25 | 350 | 4.8 | 14.5 | 0.00 | 0.00 | 0.00 | 59 | 1008.1 |
| 20260904194955 | 24 | 299 | 4.8 | 4.8 | 0.00 | 0.00 | 0.00 | 61 | 1008.1 |
| 20260904194451 | 24 | 14 | 1.6 | 3.2 | 0.00 | 0.00 | 0.00 | 63 | 1008.1 |
| 20260904193945 | 24 | 319 | 4.8 | 11.3 | 0.00 | 0.00 | 0.00 | 60 | 1008.1 |
| 20260904193429 | 23 | 289 | 8.0 | 8.0 | 0.00 | 0.00 | 0.00 | 60 | 1008.2 |
| 20260904192925 | 23 | 289 | 8.0 | 8.0 | 0.00 | 0.00 | 0.00 | 60 | 1008.2 |
| 20260904192420 | 24 | 291 | 11.3 | 14.5 | 0.00 | 0.00 | 0.00 | 57 | 1008.2 |
| 20260904191916 | 24 | 309 | 4.8 | 14.5 | 0.00 | 0.00 | 0.00 | 58 | 1008.0 |
| 20260904191413 | 25 | 301 | 4.8 | 8.0 | 0.00 | 0.00 | 0.00 | 62 | 1008.2 |
| 20260904190909 | 24 | 326 | 8.0 | 11.3 | 0.00 | 0.00 | 0.00 | 64 | 1008.2 |
| 20260904190404 | 23 | 304 | 1.6 | 4.8 | 0.00 | 0.00 | 0.00 | 69 | 1008.5 |
| 20260904185901 | 23 | 16 | 3.2 | 3.2 | 0.00 | 0.00 | 0.00 | 70 | 1008.5 |
| 20260904185355 | 23 | 43 | 0.0 | 3.2 | 0.00 | 0.00 | 0.00 | 70 | 1008.5 |
| 20260904184855 | 23 | 24 | 1.6 | 3.2 | 0.00 | 0.00 | 0.00 | 69 | 1008.3 |
| 20260904184350 | 23 | 20 | 3.2 | 3.2 | 0.00 | 0.00 | 0.00 | 70 | 1008.2 |
| 20260904183840 | 23 | 43 | 1.6 | 3.2 | 0.00 | 0.00 | 0.00 | 69 | 1008.2 |
| 20260904183335 | 23 | 335 | 3.2 | 4.8 | 0.00 | 0.00 | 0.00 | 66 | 1008.2 |
| 20260904182830 | 24 | 3 | 3.2 | 4.8 | 0.00 | 0.00 | 0.00 | 64 | 1008.2 |
| 20260904182325 | 25 | 317 | 0.0 | 3.2 | 0.00 | 0.00 | 0.00 | 64 | 1008.1 |
| 20260904181820 | 25 | 301 | 4.8 | 8.0 | 0.00 | 0.00 | 0.00 | 61 | 1008.0 |
| 20260904181315 | 25 | 303 | 6.4 | 8.0 | 0.00 | 0.00 | 0.00 | 62 | 1008.1 |
| 20260904180810 | 25 | 71 | 4.8 | 8.0 | 0.00 | 0.00 | 0.00 | 68 | 1008.1 |
| 20260904180305 | 23 | 60 | 0.0 | 3.2 | 0.00 | 0.00 | 0.00 | 68 | 1008.1 |
| 20260904175804 | 23 | 18 | 0.0 | 3.2 | 0.00 | 0.00 | 0.00 | 71 | 1008.4 |
| 20260904175305 | 23 | 293 | 3.2 | 4.8 | 0.00 | 0.00 | 0.00 | 68 | 1008.3 |
| 20260904174758 | 23 | 321 | 3.2 | 8.0 | 0.00 | 0.00 | 0.00 | 71 | 1008.2 |
| 20260904174254 | 23 | 74 | 4.8 | 4.8 | 0.00 | 0.00 | 0.00 | 76 | 1008.3 |
| 20260904173749 | 22 | 13 | 0.0 | 3.2 | 0.00 | 0.00 | 0.00 | 76 | 1008.2 |
| 20260904173244 | 22 | 13 | 0.0 | 3.2 | 0.00 | 0.00 | 0.00 | 75 | 1008.3 |
| 20260904172741 | 22 | 312 | 3.2 | 4.8 | 0.00 | 0.00 | 0.00 | 75 | 1008.2 |
| 20260904172239 | 22 | 321 | 1.6 | 4.8 | 0.00 | 0.00 | 0.00 | 74 | 1008.4 |
| 20260904171734 | 22 | 5 | 3.2 | 3.2 | 0.00 | 0.00 | 0.00 | 80 | 1008.4 |
| 20260904171229 | 22 | 12 | 3.2 | 3.2 | 0.00 | 0.00 | 0.00 | 78 | 1008.6 |
| 20260904170726 | 22 | 14 | 0.0 | 3.2 | 0.00 | 0.00 | 0.00 | 80 | 1008.5 |
| 20260904170222 | 22 | 270 | 3.2 | 4.8 | 0.00 | 0.00 | 0.00 | 78 | 1008.4 |
| 20260904165721 | 22 | 32 | 1.6 | 3.2 | 0.00 | 0.00 | 0.00 | 79 | 1008.6 |